Wind_Speed
3 3 7 10 6 7 7 6 6 4 7 6 5 7 15 11 12 11 8 7 7 6 11 19 17 16 15 15 16 14 16 18 23 25 27 26 26 24 25 25 23 25 26 26
2 8 9 6 7 8 10 11 5 2 9 7 7 5 4 3 7 14 12 10 9 7 6 15 18 17 15 16 16 18 18 17 19 21 25 26 25 24 24 23 23 23 24 25
7 5 7 5 5 7 6 9 6 8 7 6 7 3 5 6 4 7 11 12 13 15 12 8 16 15 15 16 16 16 16 20 20 23 25 26 26 22 23 23 24 22 23 24
7 11 7 8 6 7 7 9 10 15 14 5 4 4 7 10 8 9 12 14 13 12 9 10 15 16 17 18 17 14 16 20 20 20 22 24 25 23 22 22 21 22 21 23
9 9 10 7 14 10 10 7 14 18 11 7 7 2 5 14 12 10 14 15 13 13 12 10 17 19 19 19 19 16 19 18 19 20 22 23 23 22 22 19 20 21 21 21
9 3 9 13 12 14 8 12 9 5 3 1 8 7 3 11 23 17 12 17 16 10 10 17 24 22 19 20 20 18 18 18 18 19 18 21 21 19 18 16 18 18 19 20
6 8 5 5 5 4 14 17 3 2 1 5 12 7 10 18 17 24 22 20 18 16 13 13 18 22 22 23 22 20 17 18 18 19 19 17 17 17 16 15 16 16 18 19
6 5 11 4 6 8 15 9 6 7 5 4 8 7 7 15 19 14 13 17 17 16 15 15 21 24 23 24 23 22 19 18 15 16 17 15 14 14 14 12 14 16 16 16
6 5 3 6 4 12 4 8 11 6 2 4 4 4 7 3 8 15 18 19 19 17 15 16 20 27 25 27 26 25 21 17 16 15 14 14 13 11 12 12 13 14 13 12
4 5 4 5 4 1 9 8 4 3 6 4 3 4 6 4 14 16 19 21 17 15 14 14 21 27 27 27 26 23 19 17 16 15 14 13 12 9 10 11 11 11 10 9
7 3 5 6 5 7 3 4 5 5 4 5 1 5 7 11 17 23 22 21 20 18 15 15 21 28 31 25 24 23 21 19 18 16 14 14 13 9 9 10 10 10 9 9
8 3 5 8 4 8 4 6 6 6 5 1 4 5 3 9 14 18 20 19 18 18 14 17 23 26 30 29 24 24 24 22 19 15 15 15 13 10 9 9 8 8 8 8
7 2 3 2 4 3 5 3 5 6 3 7 6 6 3 8 9 12 16 17 17 16 15 14 19 23 25 29 28 27 25 21 20 18 17 15 11 9 9 8 7 7 7 8
6 5 8 10 6 5 7 5 5 6 4 5 5 4 3 6 13 12 14 17 19 17 18 16 16 22 25 31 32 27 26 22 22 19 17 14 11 9 7 7 6 5 5 6
7 6 6 6 11 7 5 6 8 5 5 7 6 7 8 13 17 20 19 17 18 18 17 18 16 20 25 27 32 32 27 25 22 19 16 12 11 9 8 7 5 4 4 6
1 3 3 1 7 9 8 9 10 7 6 4 11 7 6 8 6 12 18 20 20 20 19 19 18 25 27 29 32 33 30 26 22 19 17 13 13 11 7 6 3 2 4 4
5 5 3 4 7 6 4 10 8 7 6 9 6 7 7 7 14 18 19 22 23 21 19 20 20 28 29 31 34 35 33 28 23 20 18 16 14 12 7 6 2 3 4 4
5 6 3 4 4 3 7 7 11 11 10 9 6 10 11 9 18 21 22 24 21 20 20 19 26 29 31 33 36 37 35 30 25 22 20 16 15 13 9 6 3 2 2 3
4 4 3 5 3 3 1 4 6 7 9 9 11 9 8 9 6 7 19 22 24 22 23 28 31 31 32 36 39 39 36 31 26 24 22 19 17 14 12 8 5 2 1 1
4 4 4 2 6 10 5 3 5 4 6 5 9 11 11 8 7 6 15 17 16 25 29 29 32 33 37 37 42 38 35 33 30 27 24 20 18 15 13 9 7 4 2 2
3 3 6 2 2 5 5 9 5 6 5 5 6 8 8 6 11 13 16 16 25 29 29 32 36 36 37 41 42 35 35 34 32 27 24 23 20 16 13 11 8 6 5 3
5 5 3 3 3 6 4 1 7 6 4 4 5 4 6 10 7 8 18 19 18 21 27 35 34 32 37 44 42 34 34 38 31 26 26 25 23 17 15 12 9 7 5 4
5 4 5 7 6 5 4 6 2 4 5 3 5 5 3 3 8 10 13 19 20 28 31 35 34 32 35 43 43 35 38 37 32 29 29 29 23 19 16 14 11 9 6 5
0 5 3 3 4 4 3 3 3 2 4 5 5 3 4 2 4 9 13 16 17 26 29 33 31 30 31 38 40 43 42 38 35 33 35 30 25 21 17 14 11 10 8 6
4 0 4 1 4 6 3 8 7 9 5 3 4 4 5 5 5 5 8 16 17 26 29 34 34 33 35 38 37 41 42 40 38 38 35 30 25 22 19 15 12 10 7 6
3 3 1 2 2 1 5 7 9 7 7 7 5 4 4 4 4 3 6 7 19 22 27 28 31 33 34 38 38 42 44 43 41 39 35 31 28 24 20 17 13 9 7 6
Wind_Direction
189 118 204 207 180 154 138 127 126 179 192 96 148 158 182 171 169 165 167 161 148 136 136 128 121 116 110 91 92 96 100 99 115 107 103 93 87 80 71 66 67 67 64 60
38 225 218 209 193 163 155 167 186 42 141 87 149 186 222 203 186 177 169 163 159 131 128 127 127 125 117 106 96 90 90 90 101 115 103 102 97 91 84 72 65 66 65 62
181 240 185 194 201 170 175 166 166 160 118 46 114 15 217 227 202 162 166 158 162 154 151 155 133 128 124 114 102 94 91 91 106 110 112 106 101 96 84 70 64 63 65 64
220 238 218 209 228 176 210 184 176 160 150 175 194 229 218 211 208 182 166 171 166 158 152 150 141 135 127 121 113 107 108 98 101 110 106 101 99 95 89 82 71 67 64 62
229 172 199 211 222 190 222 160 177 165 160 113 204 122 262 181 214 217 188 181 172 167 162 153 155 147 148 137 122 112 104 103 101 104 105 107 101 99 97 85 74 66 67 63
237 210 175 211 221 189 194 140 145 129 103 174 202 179 240 181 207 205 188 178 170 166 158 152 162 156 147 140 128 119 115 104 106 106 109 108 104 99 92 89 81 70 66 65
264 250 225 165 157 120 132 136 91 18 356 222 226 209 234 211 201 192 180 175 169 169 160 148 150 157 147 148 137 129 125 117 110 113 112 107 101 99 98 91 86 75 66 60
178 225 190 176 160 161 150 148 147 167 188 218 210 219 242 207 202 185 170 159 156 162 159 155 157 158 152 154 147 141 139 132 131 122 110 105 103 106 100 92 87 78 68 61
157 240 197 150 138 143 213 166 160 121 56 98 210 279 327 258 169 161 160 164 169 166 159 156 159 159 155 160 158 149 145 140 131 122 118 116 118 111 99 89 82 79 75 64
290 175 205 160 100 156 158 156 127 2 137 194 270 208 218 190 172 166 166 175 171 162 157 159 162 162 156 155 156 151 149 143 143 136 132 127 121 108 97 93 92 91 87 76
201 147 256 121 157 176 138 141 62 108 129 167 166 256 217 193 174 176 179 175 168 165 162 162 165 164 161 154 162 158 154 155 151 150 142 136 135 122 116 109 101 105 98 82
194 150 181 195 200 157 158 155 131 139 241 33 141 270 299 188 187 174 174 172 165 165 162 162 163 163 165 161 159 165 162 165 164 159 155 149 142 137 124 115 106 104 94 79
170 212 94 76 358 355 131 144 111 105 96 185 139 258 348 135 153 174 163 164 165 160 160 160 160 165 165 168 170 173 170 167 168 165 160 152 150 145 129 121 105 97 92 82
134 150 170 202 183 158 152 147 151 127 130 163 215 198 138 147 156 159 169 169 167 169 168 168 168 170 169 172 175 176 173 174 175 170 163 161 158 147 131 125 115 104 98 81
135 173 156 175 173 158 160 155 166 155 163 173 180 188 202 178 172 183 174 169 171 177 176 176 172 172 173 174 178 177 178 174 172 171 171 167 161 156 149 144 127 91 99 77
107 206 117 168 175 170 207 200 172 189 169 152 164 221 191 185 135 162 176 175 182 185 182 181 176 175 176 177 179 181 179 179 179 177 176 170 169 168 163 154 111 81 112 79
129 127 102 183 131 93 303 213 186 199 172 179 169 202 155 174 175 182 183 185 189 188 183 180 180 180 178 178 179 181 182 180 180 181 180 177 177 177 172 166 123 111 108 70
136 112 107 173 99 179 248 195 190 193 228 202 211 181 188 190 195 196 190 184 191 189 185 182 181 181 180 179 182 184 183 182 182 183 182 186 185 185 180 182 177 116 102 56
143 117 93 140 174 272 275 171 152 157 242 215 207 216 197 208 170 209 192 190 191 188 185 183 180 176 176 178 183 184 184 185 186 186 189 193 191 191 193 198 202 202 166 34
85 98 129 118 157 220 171 204 132 146 247 231 193 212 208 134 167 223 185 191 187 187 183 176 176 174 175 179 183 179 181 186 189 192 195 195 193 194 198 202 203 202 212 209
109 38 176 122 191 288 254 222 124 193 225 232 200 209 196 183 208 194 186 186 184 179 177 174 170 175 178 178 179 177 181 186 195 195 197 197 194 197 200 198 201 204 215 227
158 144 184 92 90 259 247 135 175 208 232 217 158 184 187 213 220 180 180 182 174 174 171 172 173 176 175 179 178 177 184 194 193 193 197 195 192 196 197 201 203 211 219 262
234 195 178 179 201 220 226 206 257 175 193 200 175 171 175 232 212 186 189 181 177 174 175 174 173 171 173 177 180 179 190 191 188 191 194 188 189 194 198 201 209 211 239 261
267 196 115 81 352 289 247 265 314 220 197 151 160 119 99 87 296 202 183 180 177 175 172 173 167 167 170 178 182 190 189 187 187 190 185 185 188 192 202 210 219 222 241 251
227 257 131 44 328 334 301 30 360 341 297 174 152 126 108 72 13 186 191 178 175 173 170 168 170 171 175 177 181 190 187 185 186 186 184 187 192 195 201 213 222 229 245 252
342 345 117 169 22 278 283 342 339 330 302 257 174 155 118 97 52 78 150 183 164 166 166 169 172 170 172 176 180 187 186 186 186 182 186 189 191 196 206 211 213 227 237 239
Height
765 781 786 777 774 775 781 789 799 801 795 808 819 827 819 822 825 832 835 839 839 841 840 841 844 846 848 849 847 847 844 845 842 844 843 844 846 848 849 850 849 846 845 845
773 781 767 766 768 771 779 789 800 795 794 807 826 828 826 825 825 825 830 835 837 839 844 842 844 847 849 848 849 848 845 846 843 845 845 848 849 852 851 855 853 849 847 847
775 763 756 762 764 770 778 787 794 798 801 815 823 836 830 822 821 823 826 828 833 835 840 845 842 846 848 849 849 847 847 846 848 847 848 849 851 856 853 854 855 854 852 849
766 752 756 761 765 765 781 770 777 789 801 824 811 837 828 822 823 821 825 828 831 834 837 841 843 844 847 850 849 851 852 848 851 850 849 851 853 857 858 858 857 857 857 855
758 753 758 763 757 759 769 760 770 781 798 810 815 825 817 815 822 821 821 824 827 829 833 838 841 844 850 850 851 852 849 853 853 852 853 855 857 859 858 861 859 860 859 858
748 736 744 746 743 748 746 762 772 782 796 820 805 812 823 815 803 806 814 818 821 828 832 834 840 846 848 849 850 853 853 855 855 855 858 859 860 860 860 864 862 863 862 860
746 743 733 729 742 744 751 767 810 822 827 831 798 810 802 791 785 788 798 808 815 823 828 833 838 844 846 848 851 853 856 856 858 860 861 861 861 860 865 867 864 865 862 862
760 761 737 727 738 753 755 769 806 819 827 813 788 807 793 772 772 782 796 803 812 821 825 830 835 840 843 847 850 854 858 859 861 861 860 861 862 866 867 867 865 862 863 863
755 751 726 723 726 739 756 766 765 791 792 811 797 785 775 767 776 784 796 804 809 814 821 827 833 837 842 846 850 853 857 859 859 861 861 863 866 868 866 866 864 863 864 865
735 751 728 726 725 730 743 747 778 796 812 804 803 792 796 776 778 784 794 799 806 811 818 826 832 836 840 843 847 850 854 856 859 862 864 865 866 867 866 866 866 866 867 867
733 742 742 731 741 747 749 757 772 780 794 803 818 805 773 771 770 776 782 789 796 805 815 823 829 832 836 841 846 850 853 857 860 864 864 865 867 867 867 868 867 868 868 868
726 742 752 739 725 728 737 751 762 792 804 814 815 802 762 764 765 770 777 785 794 802 812 818 824 829 834 838 843 848 853 857 860 862 864 866 866 867 867 867 868 868 868 867
724 753 765 746 745 736 740 740 753 771 790 792 814 804 761 763 771 775 780 788 794 802 810 816 822 827 831 836 842 848 852 855 858 862 863 863 865 866 866 867 868 867 868 867
714 737 740 747 739 744 745 743 753 760 787 790 791 775 769 771 772 779 784 787 792 798 805 813 819 824 828 834 839 845 850 853 857 859 860 861 863 864 865 867 867 868 867 866
718 734 730 729 725 730 737 741 751 754 762 771 768 769 765 767 768 768 774 783 789 795 802 807 813 819 825 831 836 841 846 850 853 856 858 859 861 864 866 866 867 866 866 865
719 734 730 744 725 726 734 738 745 748 755 753 759 763 750 756 763 770 773 778 784 788 794 801 807 814 820 826 831 836 841 846 850 853 856 858 861 863 864 865 865 865 865 865
721 736 746 743 732 736 753 738 740 742 744 746 761 748 749 756 759 762 767 769 773 778 786 793 800 807 813 820 825 831 837 843 847 851 854 857 859 861 862 863 864 864 864 864
725 730 747 765 740 762 729 719 723 734 730 735 738 738 739 742 744 746 750 757 766 772 778 785 793 801 807 814 821 827 834 839 843 848 851 855 857 859 860 862 863 863 863 863
715 733 756 760 765 741 725 719 726 734 737 726 731 732 733 735 740 746 744 747 752 759 768 776 785 794 802 809 816 823 829 835 840 844 848 851 854 857 859 860 861 862 862 862
718 721 735 766 759 751 730 713 714 718 745 720 723 726 729 735 750 745 738 743 751 756 763 770 779 788 795 803 810 818 824 830 835 840 844 849 852 854 856 858 859 860 860 860
739 746 738 775 763 741 722 711 711 739 747 716 717 718 723 731 719 721 728 735 740 747 756 765 772 779 787 797 805 813 819 824 830 837 842 846 849 852 854 855 857 858 858 858
726 745 755 757 771 750 712 711 725 723 713 709 709 711 713 717 714 717 719 726 735 744 753 759 767 774 782 790 799 807 813 819 827 834 838 843 847 850 852 853 854 855 855 855
724 722 731 730 730 714 709 709 705 709 708 707 710 707 706 708 711 711 715 720 726 734 743 751 759 769 776 783 791 800 806 815 822 829 834 839 843 846 849 850 851 852 852 852
716 719 723 720 715 712 705 706 705 704 705 704 706 705 704 706 706 707 709 714 720 728 737 746 756 765 773 780 786 792 800 809 816 822 829 834 838 842 845 847 848 849 849 849
725 716 720 728 718 713 709 718 718 713 707 705 703 703 705 706 705 705 708 708 713 721 732 739 747 756 764 773 781 788 796 803 810 817 824 829 833 837 840 843 844 845 846 846
727 727 727 730 725 723 721 720 717 716 711 707 705 703 703 704 706 705 706 709 711 719 728 736 743 750 759 767 775 783 791 798 803 811 818 823 828 832 836 838 840 842 843 843